GJOHN KOTH-KSEA

Flight info

Callsign GJOHN
Flight time 2h 36m
Altitude 8500
Route SOUTHWEST OREGON REG SCOTTSBURG EUGENE HARRISBURG ALBANY SALEM WOODBURN PORTLAND WOODLAND KELSO TOLEDO CENTRALLIA OLYMPIA ANDERSON ISLAND FOX ISLAND TACOMA NARROWS BRIDGE SEATTLE TACOMA INTL
Aircraft C182/L-VGDW/C

Departure

Time 2026-04-25 18:28
Airport Southwest Oregon Regional Airport (KOTH)

Arrival

Time 2026-04-25 21:04
Airport Seattle–Tacoma International Airport (KSEA)
Time Latitude Longitude Altitude Speed Heading
2026-04-25 18:22 43.41188 -124.24293 21 ft 0 kts 240°
2026-04-25 18:24 43.41190 -124.24304 21 ft 2 kts 332°
2026-04-25 18:25 43.41215 -124.24254 21 ft 9 kts 67°
2026-04-25 18:25 43.41212 -124.24165 21 ft 12 kts 146°
2026-04-25 18:25 43.41116 -124.24086 21 ft 20 kts 149°
2026-04-25 18:25 43.40986 -124.23980 21 ft 17 kts 149°
2026-04-25 18:26 43.40913 -124.23917 21 ft 11 kts 136°
2026-04-25 18:26 43.40933 -124.23834 21 ft 11 kts 57°
2026-04-25 18:26 43.40985 -124.23825 21 ft 7 kts 329°
2026-04-25 18:26 43.41120 -124.23934 21 ft 49 kts 329°
2026-04-25 18:27 43.41518 -124.24262 119 ft 77 kts 328°
2026-04-25 18:27 43.42017 -124.24698 246 ft 94 kts 324°
2026-04-25 18:27 43.42629 -124.25160 358 ft 108 kts 339°
2026-04-25 18:27 43.43343 -124.25046 549 ft 100 kts 32°
2026-04-25 18:28 43.43625 -124.24276 792 ft 90 kts 89°
2026-04-25 18:28 43.43338 -124.23570 1037 ft 82 kts 127°
2026-04-25 18:28 43.42978 -124.22972 1285 ft 81 kts 124°
2026-04-25 18:29 43.42412 -124.21693 1743 ft 96 kts 108°
2026-04-25 18:29 43.42210 -124.20755 1959 ft 106 kts 103°
2026-04-25 18:30 43.41672 -124.17578 2595 ft 122 kts 100°
2026-04-25 18:30 43.41784 -124.16455 2781 ft 120 kts 60°
2026-04-25 18:30 43.42347 -124.15639 3010 ft 116 kts 41°
2026-04-25 18:30 43.42949 -124.14918 3238 ft 114 kts 41°
2026-04-25 18:31 43.43531 -124.14195 3465 ft 112 kts 42°
2026-04-25 18:31 43.44097 -124.13473 3690 ft 110 kts 43°
2026-04-25 18:31 43.44650 -124.12755 3913 ft 109 kts 43°
2026-04-25 18:31 43.45196 -124.12040 4136 ft 108 kts 43°
2026-04-25 18:32 43.45734 -124.11333 4359 ft 106 kts 43°
2026-04-25 18:32 43.46275 -124.10620 4587 ft 107 kts 43°
2026-04-25 18:32 43.46817 -124.09905 4811 ft 109 kts 43°
2026-04-25 18:32 43.47363 -124.09184 5036 ft 109 kts 43°
2026-04-25 18:33 43.47906 -124.08466 5261 ft 108 kts 43°
2026-04-25 18:33 43.48445 -124.07753 5482 ft 106 kts 43°
2026-04-25 18:33 43.48966 -124.07065 5703 ft 103 kts 43°
2026-04-25 18:33 43.49474 -124.06394 5924 ft 100 kts 43°
2026-04-25 18:34 43.49967 -124.05741 6142 ft 98 kts 43°
2026-04-25 18:34 43.50450 -124.05102 6360 ft 95 kts 43°
2026-04-25 18:34 43.50924 -124.04476 6578 ft 93 kts 42°
2026-04-25 18:34 43.51386 -124.03863 6796 ft 91 kts 42°
2026-04-25 18:35 43.51837 -124.03266 7013 ft 89 kts 42°
2026-04-25 18:35 43.52284 -124.02674 7231 ft 87 kts 42°
2026-04-25 18:35 43.52721 -124.02096 7416 ft 88 kts 41°
2026-04-25 18:35 43.53169 -124.01504 7589 ft 90 kts 42°
2026-04-25 18:36 43.53622 -124.00903 7763 ft 91 kts 42°
2026-04-25 18:36 43.54077 -124.00300 7939 ft 91 kts 41°
2026-04-25 18:36 43.54532 -123.99697 8113 ft 91 kts 42°
2026-04-25 18:36 43.54986 -123.99094 8287 ft 91 kts 42°
2026-04-25 18:37 43.55438 -123.98495 8456 ft 91 kts 42°
2026-04-25 18:37 43.55924 -123.97852 8487 ft 103 kts 43°
2026-04-25 18:37 43.56464 -123.97134 8505 ft 110 kts 43°
2026-04-25 18:37 43.57005 -123.96415 8500 ft 106 kts 43°
2026-04-25 18:38 43.57530 -123.95716 8496 ft 104 kts 43°
2026-04-25 18:38 43.58046 -123.95031 8495 ft 102 kts 43°
2026-04-25 18:38 43.58555 -123.94354 8493 ft 102 kts 43°
2026-04-25 18:38 43.59063 -123.93679 8493 ft 101 kts 43°
2026-04-25 18:39 43.59568 -123.93008 8493 ft 101 kts 43°
2026-04-25 18:39 43.60080 -123.92327 8494 ft 101 kts 43°
2026-04-25 18:39 43.60582 -123.91660 8497 ft 100 kts 43°
2026-04-25 18:39 43.61084 -123.90992 8498 ft 100 kts 43°
2026-04-25 18:40 43.61586 -123.90324 8498 ft 100 kts 43°
2026-04-25 18:40 43.62089 -123.89655 8497 ft 101 kts 43°
2026-04-25 18:40 43.62591 -123.88987 8497 ft 101 kts 43°
2026-04-25 18:40 43.63094 -123.88317 8496 ft 101 kts 43°
2026-04-25 18:41 43.63596 -123.87648 8499 ft 100 kts 43°
2026-04-25 18:41 43.64097 -123.86981 8499 ft 100 kts 43°
2026-04-25 18:41 43.64599 -123.86313 8499 ft 100 kts 43°
2026-04-25 18:41 43.65101 -123.85644 8499 ft 100 kts 43°
2026-04-25 18:42 43.65603 -123.84974 8498 ft 101 kts 43°
2026-04-25 18:42 43.65773 -123.84748 8498 ft 101 kts 43°
2026-04-25 18:42 43.66615 -123.83624 8497 ft 101 kts 43°
2026-04-25 18:42 43.67118 -123.82954 8497 ft 101 kts 43°
2026-04-25 18:43 43.67620 -123.82283 8496 ft 101 kts 43°
2026-04-25 18:43 43.68123 -123.81613 8496 ft 101 kts 43°
2026-04-25 18:43 43.68626 -123.80941 8495 ft 101 kts 43°
2026-04-25 18:43 43.69128 -123.80270 8495 ft 101 kts 43°
2026-04-25 18:44 43.69632 -123.79598 8494 ft 101 kts 43°
2026-04-25 18:44 43.70134 -123.78927 8495 ft 101 kts 43°
2026-04-25 18:44 43.70635 -123.78258 8499 ft 100 kts 43°
2026-04-25 18:44 43.71136 -123.77588 8499 ft 100 kts 43°
2026-04-25 18:45 43.71637 -123.76918 8499 ft 100 kts 43°
2026-04-25 18:45 43.72139 -123.76247 8499 ft 100 kts 43°
2026-04-25 18:45 43.72646 -123.75569 8499 ft 100 kts 43°
2026-04-25 18:45 43.73147 -123.74899 8499 ft 100 kts 43°
2026-04-25 18:46 43.73649 -123.74227 8499 ft 101 kts 43°
2026-04-25 18:46 43.74150 -123.73556 8498 ft 101 kts 43°
2026-04-25 18:46 43.74653 -123.72883 8498 ft 101 kts 43°
2026-04-25 18:46 43.75154 -123.72212 8498 ft 101 kts 43°
2026-04-25 18:47 43.75656 -123.71539 8497 ft 101 kts 43°
2026-04-25 18:47 43.76157 -123.70867 8497 ft 101 kts 43°
2026-04-25 18:47 43.76659 -123.70195 8497 ft 101 kts 43°
2026-04-25 18:47 43.77160 -123.69523 8498 ft 100 kts 43°
2026-04-25 18:48 43.77661 -123.68852 8500 ft 100 kts 43°
2026-04-25 18:48 43.78161 -123.68181 8500 ft 100 kts 43°
2026-04-25 18:48 43.78662 -123.67509 8500 ft 100 kts 43°
2026-04-25 18:48 43.79170 -123.66828 8499 ft 100 kts 43°
2026-04-25 18:49 43.79670 -123.66156 8500 ft 100 kts 43°
2026-04-25 18:49 43.80172 -123.65482 8499 ft 101 kts 43°
2026-04-25 18:49 43.80672 -123.64811 8499 ft 101 kts 43°
2026-04-25 18:49 43.81173 -123.64137 8499 ft 101 kts 43°
2026-04-25 18:50 43.81675 -123.63463 8499 ft 101 kts 43°
2026-04-25 18:50 43.82176 -123.62790 8499 ft 101 kts 43°
2026-04-25 18:50 43.82676 -123.62118 8499 ft 101 kts 43°
2026-04-25 18:50 43.83178 -123.61443 8499 ft 101 kts 43°
2026-04-25 18:51 43.83679 -123.60769 8498 ft 101 kts 43°
2026-04-25 18:51 43.83848 -123.60542 8498 ft 101 kts 43°
2026-04-25 18:51 43.84682 -123.59420 8498 ft 101 kts 43°
2026-04-25 18:51 43.85182 -123.58747 8498 ft 101 kts 43°
2026-04-25 18:52 43.85690 -123.58064 8498 ft 101 kts 43°
2026-04-25 18:52 43.86191 -123.57388 8498 ft 101 kts 43°
2026-04-25 18:52 43.86692 -123.56714 8498 ft 101 kts 43°
2026-04-25 18:52 43.87193 -123.56038 8497 ft 101 kts 43°
2026-04-25 18:53 43.87696 -123.55361 8496 ft 101 kts 43°
2026-04-25 18:53 43.88199 -123.54683 8496 ft 101 kts 43°
2026-04-25 18:53 43.88703 -123.54004 8496 ft 101 kts 43°
2026-04-25 18:53 43.89207 -123.53324 8496 ft 101 kts 43°
2026-04-25 18:54 43.90217 -123.51961 8498 ft 101 kts 43°
2026-04-25 18:54 43.90721 -123.51281 8500 ft 101 kts 43°
2026-04-25 18:54 43.91225 -123.50601 8500 ft 101 kts 43°
2026-04-25 18:55 43.91730 -123.49919 8500 ft 101 kts 43°
2026-04-25 18:55 43.92235 -123.49237 8500 ft 101 kts 43°
2026-04-25 18:55 43.92746 -123.48547 8500 ft 101 kts 43°
2026-04-25 18:55 43.93251 -123.47864 8500 ft 101 kts 43°
2026-04-25 18:56 43.93756 -123.47182 8500 ft 102 kts 43°
2026-04-25 18:56 43.94260 -123.46500 8500 ft 102 kts 43°
2026-04-25 18:56 43.94765 -123.45817 8500 ft 102 kts 43°
2026-04-25 18:56 43.95271 -123.45133 8499 ft 102 kts 43°
2026-04-25 18:57 43.95776 -123.44450 8499 ft 102 kts 43°
2026-04-25 18:57 43.96281 -123.43767 8499 ft 102 kts 43°
2026-04-25 18:57 43.96786 -123.43083 8499 ft 102 kts 43°
2026-04-25 18:57 43.96957 -123.42851 8499 ft 102 kts 43°
2026-04-25 18:58 43.97798 -123.41713 8498 ft 102 kts 44°
2026-04-25 18:58 43.98813 -123.40337 8500 ft 102 kts 44°
2026-04-25 18:58 43.99322 -123.39647 8500 ft 102 kts 44°
2026-04-25 18:59 44.00347 -123.38258 8499 ft 103 kts 45°
2026-04-25 18:59 44.01376 -123.36864 8499 ft 104 kts 47°
2026-04-25 19:00 44.02414 -123.35453 8499 ft 105 kts 47°
2026-04-25 19:00 44.02936 -123.34745 8500 ft 105 kts 47°
2026-04-25 19:01 44.03981 -123.33324 8500 ft 105 kts 47°
2026-04-25 19:01 44.04506 -123.32612 8500 ft 106 kts 47°
2026-04-25 19:01 44.05030 -123.31899 8499 ft 106 kts 47°
2026-04-25 19:01 44.05554 -123.31186 8499 ft 106 kts 47°
2026-04-25 19:02 44.06611 -123.29749 8499 ft 106 kts 47°
2026-04-25 19:02 44.06960 -123.29275 8499 ft 106 kts 47°
2026-04-25 19:02 44.07484 -123.28561 8499 ft 106 kts 47°
2026-04-25 19:03 44.08357 -123.27372 8499 ft 106 kts 47°
2026-04-25 19:03 44.09060 -123.26416 8499 ft 106 kts 47°
2026-04-25 19:03 44.09585 -123.25701 8499 ft 106 kts 47°
2026-04-25 19:04 44.10635 -123.24269 8499 ft 106 kts 47°
2026-04-25 19:04 44.11160 -123.23553 8499 ft 106 kts 47°
2026-04-25 19:05 44.12315 -123.22275 8499 ft 108 kts 25°
2026-04-25 19:05 44.13743 -123.21629 8502 ft 108 kts 20°
2026-04-25 19:05 44.14466 -123.21327 8502 ft 109 kts 19°
2026-04-25 19:06 44.15190 -123.21030 8501 ft 109 kts 19°
2026-04-25 19:06 44.16642 -123.20437 8500 ft 109 kts 19°
2026-04-25 19:06 44.17370 -123.20141 8500 ft 109 kts 19°
2026-04-25 19:07 44.18823 -123.19550 8499 ft 109 kts 20°
2026-04-25 19:07 44.19550 -123.19254 8500 ft 109 kts 20°
2026-04-25 19:08 44.21009 -123.18660 8500 ft 109 kts 20°
2026-04-25 19:08 44.21741 -123.18362 8510 ft 114 kts 20°
2026-04-25 19:09 44.24220 -123.17351 8496 ft 129 kts 19°
2026-04-25 19:09 44.24795 -123.17117 8485 ft 129 kts 19°
2026-04-25 19:09 44.26706 -123.16341 8491 ft 118 kts 19°
2026-04-25 19:10 44.27486 -123.16023 8490 ft 116 kts 20°
2026-04-25 19:10 44.28253 -123.15710 8489 ft 114 kts 20°
2026-04-25 19:10 44.29008 -123.15401 8488 ft 112 kts 20°
2026-04-25 19:10 44.29752 -123.15097 8488 ft 111 kts 20°
2026-04-25 19:11 44.30491 -123.14795 8489 ft 110 kts 20°
2026-04-25 19:11 44.31234 -123.14492 8489 ft 110 kts 20°
2026-04-25 19:11 44.31964 -123.14193 8489 ft 109 kts 20°
2026-04-25 19:11 44.32692 -123.13896 8491 ft 109 kts 20°
2026-04-25 19:12 44.33416 -123.13599 8491 ft 109 kts 20°
2026-04-25 19:12 44.34142 -123.13303 8492 ft 109 kts 20°
2026-04-25 19:12 44.34866 -123.13007 8492 ft 109 kts 20°
2026-04-25 19:12 44.35589 -123.12711 8493 ft 108 kts 20°
2026-04-25 19:13 44.36312 -123.12415 8493 ft 108 kts 20°
2026-04-25 19:13 44.37035 -123.12119 8494 ft 108 kts 20°
2026-04-25 19:13 44.37756 -123.11824 8494 ft 108 kts 20°
2026-04-25 19:13 44.38479 -123.11528 8495 ft 108 kts 20°
2026-04-25 19:14 44.39201 -123.11232 8495 ft 108 kts 20°
2026-04-25 19:14 44.39689 -123.11032 8495 ft 108 kts 20°
2026-04-25 19:14 44.40646 -123.10640 8495 ft 108 kts 20°
2026-04-25 19:14 44.41379 -123.10340 8495 ft 108 kts 20°
2026-04-25 19:15 44.42100 -123.10044 8495 ft 108 kts 20°
2026-04-25 19:15 44.42824 -123.09747 8495 ft 108 kts 20°
2026-04-25 19:15 44.43546 -123.09451 8495 ft 108 kts 20°
2026-04-25 19:15 44.44270 -123.09154 8495 ft 108 kts 20°
2026-04-25 19:16 44.44991 -123.08858 8496 ft 108 kts 20°
2026-04-25 19:16 44.45714 -123.08561 8496 ft 108 kts 20°
2026-04-25 19:16 44.46437 -123.08264 8496 ft 108 kts 20°
2026-04-25 19:16 44.47160 -123.07967 8496 ft 108 kts 20°
2026-04-25 19:17 44.47882 -123.07671 8496 ft 108 kts 20°
2026-04-25 19:17 44.48605 -123.07374 8496 ft 108 kts 20°
2026-04-25 19:17 44.49326 -123.07077 8496 ft 108 kts 20°
2026-04-25 19:17 44.50049 -123.06780 8496 ft 108 kts 20°
2026-04-25 19:18 44.50771 -123.06483 8496 ft 108 kts 20°
2026-04-25 19:18 44.51494 -123.06185 8496 ft 108 kts 20°
2026-04-25 19:18 44.52225 -123.05885 8497 ft 108 kts 20°
2026-04-25 19:18 44.52947 -123.05588 8499 ft 108 kts 20°
2026-04-25 19:19 44.53667 -123.05291 8500 ft 108 kts 20°
2026-04-25 19:19 44.54389 -123.04994 8500 ft 108 kts 20°
2026-04-25 19:19 44.55110 -123.04697 8500 ft 108 kts 20°
2026-04-25 19:19 44.55588 -123.04500 8500 ft 108 kts 20°
2026-04-25 19:20 44.56552 -123.04102 8499 ft 108 kts 20°
2026-04-25 19:20 44.57274 -123.03805 8499 ft 108 kts 20°
2026-04-25 19:20 44.57996 -123.03507 8499 ft 108 kts 20°
2026-04-25 19:20 44.58718 -123.03210 8498 ft 108 kts 20°
2026-04-25 19:21 44.59441 -123.02911 8498 ft 108 kts 20°
2026-04-25 19:21 44.60889 -123.02314 8497 ft 108 kts 20°
2026-04-25 19:21 44.61611 -123.02016 8500 ft 108 kts 20°
2026-04-25 19:22 44.62332 -123.01718 8499 ft 108 kts 20°
2026-04-25 19:22 44.63052 -123.01420 8499 ft 108 kts 20°
2026-04-25 19:22 44.64496 -123.00823 8499 ft 108 kts 20°
2026-04-25 19:23 44.65219 -123.00525 8498 ft 108 kts 20°
2026-04-25 19:23 44.66663 -122.99928 8497 ft 108 kts 20°
2026-04-25 19:23 44.67393 -122.99625 8497 ft 108 kts 20°
2026-04-25 19:24 44.68116 -122.99326 8497 ft 108 kts 20°
2026-04-25 19:24 44.68837 -122.99028 8496 ft 108 kts 20°
2026-04-25 19:24 44.70281 -122.98430 8495 ft 108 kts 20°
2026-04-25 19:25 44.71725 -122.97831 8494 ft 108 kts 20°
2026-04-25 19:25 44.72448 -122.97532 8494 ft 108 kts 20°
2026-04-25 19:25 44.73170 -122.97233 8493 ft 108 kts 20°
2026-04-25 19:26 44.73891 -122.96934 8493 ft 108 kts 20°
2026-04-25 19:26 44.74614 -122.96634 8492 ft 108 kts 20°
2026-04-25 19:26 44.75335 -122.96334 8492 ft 108 kts 20°
2026-04-25 19:26 44.76066 -122.96031 8492 ft 108 kts 20°
2026-04-25 19:27 44.76788 -122.95731 8491 ft 108 kts 20°
2026-04-25 19:27 44.77265 -122.95533 8491 ft 108 kts 20°
2026-04-25 19:27 44.78230 -122.95133 8491 ft 108 kts 20°
2026-04-25 19:27 44.78953 -122.94832 8490 ft 108 kts 20°
2026-04-25 19:28 44.79673 -122.94533 8490 ft 108 kts 20°
2026-04-25 19:28 44.80394 -122.94233 8490 ft 108 kts 20°
2026-04-25 19:28 44.81114 -122.93934 8490 ft 108 kts 20°
2026-04-25 19:28 44.81835 -122.93634 8489 ft 108 kts 20°
2026-04-25 19:29 44.82556 -122.93334 8489 ft 108 kts 20°
2026-04-25 19:29 44.83276 -122.93034 8489 ft 108 kts 20°
2026-04-25 19:29 44.83997 -122.92734 8489 ft 108 kts 20°
2026-04-25 19:29 44.84718 -122.92434 8489 ft 108 kts 20°
2026-04-25 19:30 44.85439 -122.92133 8489 ft 108 kts 20°
2026-04-25 19:30 44.86169 -122.91830 8489 ft 108 kts 20°
2026-04-25 19:30 44.86889 -122.91530 8488 ft 108 kts 20°
2026-04-25 19:30 44.87609 -122.91230 8488 ft 108 kts 20°
2026-04-25 19:31 44.88329 -122.90929 8488 ft 108 kts 20°
2026-04-25 19:31 44.89049 -122.90629 8488 ft 108 kts 20°
2026-04-25 19:31 44.89769 -122.90329 8488 ft 108 kts 20°
2026-04-25 19:31 44.90488 -122.90029 8488 ft 108 kts 20°
2026-04-25 19:32 44.91209 -122.89728 8488 ft 108 kts 20°
2026-04-25 19:32 44.91928 -122.89428 8488 ft 108 kts 20°
2026-04-25 19:32 44.92648 -122.89127 8488 ft 108 kts 20°
2026-04-25 19:32 44.93135 -122.88924 8488 ft 108 kts 20°
2026-04-25 19:33 44.94087 -122.88526 8489 ft 108 kts 20°
2026-04-25 19:33 44.94807 -122.88225 8489 ft 108 kts 20°
2026-04-25 19:33 44.95535 -122.87921 8489 ft 108 kts 20°
2026-04-25 19:33 44.96254 -122.87621 8490 ft 108 kts 20°
2026-04-25 19:34 44.96972 -122.87320 8494 ft 107 kts 20°
2026-04-25 19:34 44.97688 -122.87021 8499 ft 107 kts 20°
2026-04-25 19:34 44.98401 -122.86722 8500 ft 107 kts 20°
2026-04-25 19:34 44.99118 -122.86422 8501 ft 107 kts 20°
2026-04-25 19:35 44.99833 -122.86123 8502 ft 108 kts 20°
2026-04-25 19:35 45.00551 -122.85822 8503 ft 108 kts 20°
2026-04-25 19:35 45.01267 -122.85522 8503 ft 108 kts 20°
2026-04-25 19:35 45.01984 -122.85222 8504 ft 108 kts 20°
2026-04-25 19:36 45.02703 -122.84921 8504 ft 108 kts 20°
2026-04-25 19:36 45.03420 -122.84620 8505 ft 108 kts 20°
2026-04-25 19:36 45.04138 -122.84319 8505 ft 108 kts 20°
2026-04-25 19:36 45.04855 -122.84018 8506 ft 108 kts 20°
2026-04-25 19:37 45.05582 -122.83713 8506 ft 108 kts 20°
2026-04-25 19:37 45.06300 -122.83412 8507 ft 108 kts 20°
2026-04-25 19:37 45.07017 -122.83111 8507 ft 108 kts 20°
2026-04-25 19:37 45.07734 -122.82810 8508 ft 108 kts 20°
2026-04-25 19:38 45.08453 -122.82508 8509 ft 108 kts 20°
2026-04-25 19:38 45.09170 -122.82207 8509 ft 108 kts 20°
2026-04-25 19:38 45.09886 -122.81906 8510 ft 108 kts 20°
2026-04-25 19:38 45.10604 -122.81604 8510 ft 108 kts 20°
2026-04-25 19:39 45.11323 -122.81302 8511 ft 108 kts 20°
2026-04-25 19:39 45.12040 -122.81000 8511 ft 108 kts 20°
2026-04-25 19:39 45.12757 -122.80699 8512 ft 108 kts 20°
2026-04-25 19:39 45.13474 -122.80397 8512 ft 108 kts 20°
2026-04-25 19:40 45.14200 -122.80092 8513 ft 108 kts 20°
2026-04-25 19:40 45.14918 -122.79789 8513 ft 108 kts 20°
2026-04-25 19:40 45.15635 -122.79488 8514 ft 108 kts 20°
2026-04-25 19:40 45.16352 -122.79186 8514 ft 108 kts 20°
2026-04-25 19:41 45.17068 -122.78884 8515 ft 108 kts 20°
2026-04-25 19:41 45.17785 -122.78582 8515 ft 108 kts 20°
2026-04-25 19:41 45.18503 -122.78279 8515 ft 108 kts 20°
2026-04-25 19:41 45.18746 -122.78177 8516 ft 108 kts 20°
2026-04-25 19:42 45.19940 -122.77673 8507 ft 109 kts 20°
2026-04-25 19:42 45.20663 -122.77368 8503 ft 109 kts 20°
2026-04-25 19:42 45.21387 -122.77063 8502 ft 108 kts 20°
2026-04-25 19:42 45.22107 -122.76759 8502 ft 108 kts 20°
2026-04-25 19:43 45.22829 -122.76454 8502 ft 108 kts 20°
2026-04-25 19:43 45.23548 -122.76151 8502 ft 108 kts 20°
2026-04-25 19:43 45.24276 -122.75843 8502 ft 108 kts 20°
2026-04-25 19:43 45.24994 -122.75540 8501 ft 108 kts 20°
2026-04-25 19:44 45.25714 -122.75235 8501 ft 108 kts 20°
2026-04-25 19:44 45.26432 -122.74932 8501 ft 108 kts 20°
2026-04-25 19:44 45.27150 -122.74628 8501 ft 108 kts 20°
2026-04-25 19:44 45.27867 -122.74325 8501 ft 108 kts 20°
2026-04-25 19:45 45.28585 -122.74021 8502 ft 108 kts 20°
2026-04-25 19:45 45.29304 -122.73717 8502 ft 108 kts 20°
2026-04-25 19:45 45.30020 -122.73414 8502 ft 108 kts 20°
2026-04-25 19:45 45.30739 -122.73109 8502 ft 108 kts 20°
2026-04-25 19:46 45.31455 -122.72806 8502 ft 108 kts 20°
2026-04-25 19:46 45.32174 -122.72502 8502 ft 108 kts 20°
2026-04-25 19:46 45.32900 -122.72194 8503 ft 108 kts 20°
2026-04-25 19:46 45.33619 -122.71889 8503 ft 108 kts 20°
2026-04-25 19:47 45.34336 -122.71585 8503 ft 108 kts 20°
2026-04-25 19:47 45.35054 -122.71281 8504 ft 108 kts 20°
2026-04-25 19:47 45.35772 -122.70976 8502 ft 108 kts 20°
2026-04-25 19:47 45.36492 -122.70670 8501 ft 108 kts 20°
2026-04-25 19:48 45.36862 -122.70513 8502 ft 108 kts 20°
2026-04-25 19:48 45.37594 -122.70202 8508 ft 113 kts 20°
2026-04-25 19:48 45.38365 -122.69874 8507 ft 118 kts 19°
2026-04-25 19:48 45.39164 -122.69536 8507 ft 122 kts 19°
2026-04-25 19:49 45.39982 -122.69189 8507 ft 124 kts 19°
2026-04-25 19:49 45.40260 -122.69071 8503 ft 124 kts 19°
2026-04-25 19:49 45.41592 -122.68507 8503 ft 117 kts 19°
2026-04-25 19:49 45.42365 -122.68178 8502 ft 115 kts 20°
2026-04-25 19:50 45.43910 -122.67519 8507 ft 120 kts 20°
2026-04-25 19:50 45.44724 -122.67172 8505 ft 125 kts 19°
2026-04-25 19:50 45.45565 -122.66814 8506 ft 128 kts 19°
2026-04-25 19:51 45.46422 -122.66450 8506 ft 129 kts 19°
2026-04-25 19:51 45.47273 -122.66089 8504 ft 127 kts 19°
2026-04-25 19:51 45.48117 -122.65730 8503 ft 127 kts 19°
2026-04-25 19:51 45.48959 -122.65371 8504 ft 126 kts 19°
2026-04-25 19:52 45.49800 -122.65012 8504 ft 126 kts 19°
2026-04-25 19:52 45.50634 -122.64657 8509 ft 124 kts 19°
2026-04-25 19:52 45.51464 -122.64302 8511 ft 124 kts 19°
2026-04-25 19:52 45.52290 -122.63949 8508 ft 125 kts 19°
2026-04-25 19:53 45.53120 -122.63594 8502 ft 125 kts 19°
2026-04-25 19:53 45.53951 -122.63239 8502 ft 126 kts 19°
2026-04-25 19:53 45.54800 -122.62875 8499 ft 129 kts 19°
2026-04-25 19:53 45.55663 -122.62506 8498 ft 130 kts 19°
2026-04-25 19:54 45.56533 -122.62134 8498 ft 131 kts 19°
2026-04-25 19:54 45.57381 -122.61771 8492 ft 124 kts 19°
2026-04-25 19:54 45.58190 -122.61422 8493 ft 120 kts 20°
2026-04-25 19:54 45.58461 -122.61317 8492 ft 119 kts 16°
2026-04-25 19:55 45.59801 -122.61668 8493 ft 118 kts 345°
2026-04-25 19:55 45.60594 -122.62065 8505 ft 123 kts 344°
2026-04-25 19:55 45.61416 -122.62490 8508 ft 128 kts 343°
2026-04-25 19:55 45.62261 -122.62934 8512 ft 131 kts 343°
2026-04-25 19:56 45.63122 -122.63388 8512 ft 133 kts 343°
2026-04-25 19:56 45.63976 -122.63840 8508 ft 131 kts 343°
2026-04-25 19:56 45.64830 -122.64292 8502 ft 131 kts 343°
2026-04-25 19:56 45.65680 -122.64742 8500 ft 130 kts 343°
2026-04-25 19:57 45.66243 -122.65039 8499 ft 130 kts 343°
2026-04-25 19:57 45.67359 -122.65630 8499 ft 126 kts 343°
2026-04-25 19:57 45.68175 -122.66062 8498 ft 125 kts 343°
2026-04-25 19:57 45.68722 -122.66351 8497 ft 124 kts 343°
2026-04-25 19:58 45.69786 -122.66913 8496 ft 123 kts 343°
2026-04-25 19:58 45.70324 -122.67198 8494 ft 121 kts 343°
2026-04-25 19:58 45.71105 -122.67612 8493 ft 119 kts 343°
2026-04-25 19:58 45.71872 -122.68018 8492 ft 117 kts 343°
2026-04-25 19:59 45.72632 -122.68420 8491 ft 116 kts 343°
2026-04-25 19:59 45.73387 -122.68820 8490 ft 115 kts 343°
2026-04-25 19:59 45.74136 -122.69217 8489 ft 114 kts 343°
2026-04-25 19:59 45.74879 -122.69610 8489 ft 114 kts 343°
2026-04-25 20:00 45.75619 -122.70003 8488 ft 113 kts 343°
2026-04-25 20:00 45.76119 -122.70268 8488 ft 113 kts 343°
2026-04-25 20:00 45.77097 -122.70787 8488 ft 113 kts 343°
2026-04-25 20:00 45.77831 -122.71177 8488 ft 112 kts 343°
2026-04-25 20:01 45.79288 -122.71951 8498 ft 112 kts 343°
2026-04-25 20:01 45.80015 -122.72337 8498 ft 112 kts 343°
2026-04-25 20:01 45.80743 -122.72724 8499 ft 112 kts 343°
2026-04-25 20:02 45.81471 -122.73111 8499 ft 112 kts 343°
2026-04-25 20:02 45.82208 -122.73503 8499 ft 112 kts 343°
2026-04-25 20:02 45.82937 -122.73891 8499 ft 112 kts 343°
2026-04-25 20:02 45.83664 -122.74278 8499 ft 112 kts 343°
2026-04-25 20:03 45.84393 -122.74666 8499 ft 112 kts 343°
2026-04-25 20:03 45.85122 -122.75054 8500 ft 112 kts 344°
2026-04-25 20:03 45.85848 -122.75441 8500 ft 112 kts 344°
2026-04-25 20:03 45.86576 -122.75828 8501 ft 112 kts 344°
2026-04-25 20:04 45.87303 -122.76215 8501 ft 112 kts 344°
2026-04-25 20:04 45.88030 -122.76601 8501 ft 112 kts 344°
2026-04-25 20:04 45.88759 -122.76987 8502 ft 112 kts 344°
2026-04-25 20:04 45.89497 -122.77302 8501 ft 110 kts 354°
2026-04-25 20:05 45.90253 -122.77448 8502 ft 110 kts 358°
2026-04-25 20:05 45.91012 -122.77559 8503 ft 110 kts 359°
2026-04-25 20:05 45.91780 -122.77659 8504 ft 110 kts 359°
2026-04-25 20:05 45.92537 -122.77752 8502 ft 110 kts 359°
2026-04-25 20:06 45.93299 -122.77844 8502 ft 110 kts 359°
2026-04-25 20:06 45.94053 -122.77933 8502 ft 110 kts 359°
2026-04-25 20:06 45.94814 -122.78022 8502 ft 110 kts 359°
2026-04-25 20:06 45.95573 -122.78111 8503 ft 110 kts 359°
2026-04-25 20:07 45.96331 -122.78200 8503 ft 110 kts 359°
2026-04-25 20:07 45.97090 -122.78289 8504 ft 110 kts 359°
2026-04-25 20:07 45.97858 -122.78379 8505 ft 110 kts 359°
2026-04-25 20:07 45.98616 -122.78468 8505 ft 110 kts 359°
2026-04-25 20:08 45.99375 -122.78556 8506 ft 110 kts 359°
2026-04-25 20:08 46.00134 -122.78645 8504 ft 110 kts 359°
2026-04-25 20:08 46.00898 -122.78733 8491 ft 111 kts 357°
2026-04-25 20:08 46.01668 -122.78824 8488 ft 111 kts 357°
2026-04-25 20:09 46.02437 -122.78915 8488 ft 111 kts 357°
2026-04-25 20:09 46.03205 -122.79005 8488 ft 111 kts 357°
2026-04-25 20:09 46.03970 -122.79095 8488 ft 111 kts 357°
2026-04-25 20:09 46.04737 -122.79185 8488 ft 111 kts 357°
2026-04-25 20:10 46.05502 -122.79275 8489 ft 111 kts 357°
2026-04-25 20:10 46.06269 -122.79365 8489 ft 111 kts 357°
2026-04-25 20:10 46.07035 -122.79455 8489 ft 111 kts 357°
2026-04-25 20:10 46.07799 -122.79545 8489 ft 110 kts 357°
2026-04-25 20:11 46.08565 -122.79635 8490 ft 110 kts 357°
2026-04-25 20:11 46.09340 -122.79726 8490 ft 110 kts 357°
2026-04-25 20:11 46.10104 -122.79815 8490 ft 110 kts 357°
2026-04-25 20:11 46.10869 -122.79905 8490 ft 110 kts 357°
2026-04-25 20:12 46.11631 -122.79995 8490 ft 110 kts 357°
2026-04-25 20:12 46.12397 -122.80085 8491 ft 110 kts 357°
2026-04-25 20:12 46.13160 -122.80175 8491 ft 110 kts 357°
2026-04-25 20:12 46.13677 -122.80236 8491 ft 110 kts 357°
2026-04-25 20:13 46.14688 -122.80355 8491 ft 110 kts 357°
2026-04-25 20:13 46.15452 -122.80445 8497 ft 110 kts 357°
2026-04-25 20:13 46.16212 -122.80534 8499 ft 110 kts 357°
2026-04-25 20:13 46.16983 -122.80625 8500 ft 110 kts 357°
2026-04-25 20:14 46.17745 -122.80715 8500 ft 110 kts 357°
2026-04-25 20:14 46.18508 -122.80805 8500 ft 110 kts 357°
2026-04-25 20:14 46.19271 -122.80894 8500 ft 110 kts 357°
2026-04-25 20:14 46.20033 -122.80984 8501 ft 110 kts 357°
2026-04-25 20:15 46.20796 -122.81074 8501 ft 110 kts 357°
2026-04-25 20:15 46.21559 -122.81164 8501 ft 110 kts 357°
2026-04-25 20:15 46.22323 -122.81255 8501 ft 110 kts 357°
2026-04-25 20:15 46.23085 -122.81345 8501 ft 110 kts 357°
2026-04-25 20:16 46.23849 -122.81435 8500 ft 110 kts 357°
2026-04-25 20:16 46.24612 -122.81525 8500 ft 110 kts 357°
2026-04-25 20:16 46.25376 -122.81615 8500 ft 110 kts 357°
2026-04-25 20:16 46.26138 -122.81705 8500 ft 110 kts 357°
2026-04-25 20:17 46.26903 -122.81796 8500 ft 110 kts 357°
2026-04-25 20:17 46.27676 -122.81887 8500 ft 110 kts 357°
2026-04-25 20:17 46.28432 -122.81977 8500 ft 110 kts 358°
2026-04-25 20:17 46.29200 -122.82068 8500 ft 110 kts 358°
2026-04-25 20:18 46.29961 -122.82158 8500 ft 110 kts 358°
2026-04-25 20:18 46.30721 -122.82248 8500 ft 110 kts 358°
2026-04-25 20:18 46.31481 -122.82338 8500 ft 110 kts 358°
2026-04-25 20:18 46.32241 -122.82428 8500 ft 110 kts 358°
2026-04-25 20:19 46.33000 -122.82517 8500 ft 110 kts 358°
2026-04-25 20:19 46.33759 -122.82607 8500 ft 110 kts 358°
2026-04-25 20:19 46.34518 -122.82697 8500 ft 110 kts 358°
2026-04-25 20:19 46.35276 -122.82787 8500 ft 110 kts 358°
2026-04-25 20:20 46.36036 -122.82877 8500 ft 110 kts 358°
2026-04-25 20:20 46.36804 -122.82969 8500 ft 110 kts 358°
2026-04-25 20:20 46.37553 -122.83057 8500 ft 110 kts 358°
2026-04-25 20:20 46.38321 -122.83149 8500 ft 110 kts 358°
2026-04-25 20:21 46.39079 -122.83239 8500 ft 110 kts 358°
2026-04-25 20:21 46.39835 -122.83328 8500 ft 109 kts 358°
2026-04-25 20:21 46.40594 -122.83419 8500 ft 109 kts 358°
2026-04-25 20:21 46.41351 -122.83509 8500 ft 109 kts 358°
2026-04-25 20:22 46.42111 -122.83599 8500 ft 109 kts 358°
2026-04-25 20:22 46.42365 -122.83629 8500 ft 109 kts 358°
2026-04-25 20:22 46.43624 -122.83779 8500 ft 109 kts 358°
2026-04-25 20:22 46.44383 -122.83869 8500 ft 109 kts 358°
2026-04-25 20:23 46.45149 -122.83961 8500 ft 109 kts 358°
2026-04-25 20:23 46.45908 -122.84051 8498 ft 110 kts 358°
2026-04-25 20:23 46.46666 -122.84141 8495 ft 110 kts 358°
2026-04-25 20:23 46.47420 -122.84231 8494 ft 110 kts 358°
2026-04-25 20:24 46.48179 -122.84321 8497 ft 109 kts 358°
2026-04-25 20:24 46.48922 -122.84410 8489 ft 104 kts 357°
2026-04-25 20:24 46.49652 -122.84496 8371 ft 108 kts 356°
2026-04-25 20:24 46.50418 -122.84588 8244 ft 109 kts 357°
2026-04-25 20:25 46.51166 -122.84678 8121 ft 110 kts 357°
2026-04-25 20:25 46.51936 -122.84769 7995 ft 110 kts 357°
2026-04-25 20:25 46.52697 -122.84849 7871 ft 110 kts 357°
2026-04-25 20:25 46.53461 -122.84934 7748 ft 110 kts 357°
2026-04-25 20:26 46.54227 -122.85022 7623 ft 110 kts 357°
2026-04-25 20:26 46.54992 -122.85112 7499 ft 111 kts 357°
2026-04-25 20:26 46.55760 -122.85202 7376 ft 111 kts 357°
2026-04-25 20:26 46.56526 -122.85294 7252 ft 111 kts 357°
2026-04-25 20:27 46.57295 -122.85385 7129 ft 111 kts 357°
2026-04-25 20:27 46.58066 -122.85477 7004 ft 111 kts 356°
2026-04-25 20:27 46.58843 -122.85570 6880 ft 112 kts 356°
2026-04-25 20:27 46.59619 -122.85663 6756 ft 112 kts 356°
2026-04-25 20:28 46.60395 -122.85756 6632 ft 112 kts 356°
2026-04-25 20:28 46.61173 -122.85849 6507 ft 112 kts 356°
2026-04-25 20:28 46.61946 -122.85942 6382 ft 112 kts 356°
2026-04-25 20:28 46.62718 -122.86035 6257 ft 112 kts 356°
2026-04-25 20:29 46.63490 -122.86127 6132 ft 112 kts 356°
2026-04-25 20:29 46.64263 -122.86220 6007 ft 112 kts 356°
2026-04-25 20:29 46.65037 -122.86313 5883 ft 112 kts 356°
2026-04-25 20:29 46.65811 -122.86405 5758 ft 112 kts 356°
2026-04-25 20:30 46.66586 -122.86498 5634 ft 112 kts 356°
2026-04-25 20:30 46.67360 -122.86591 5510 ft 112 kts 356°
2026-04-25 20:30 46.68135 -122.86684 5385 ft 112 kts 356°
2026-04-25 20:30 46.68913 -122.86777 5261 ft 112 kts 356°
2026-04-25 20:31 46.69689 -122.86871 5137 ft 112 kts 356°
2026-04-25 20:31 46.70478 -122.86966 5011 ft 112 kts 356°
2026-04-25 20:31 46.71254 -122.87059 4887 ft 112 kts 356°
2026-04-25 20:31 46.72032 -122.87153 4764 ft 112 kts 356°
2026-04-25 20:32 46.72811 -122.87246 4639 ft 112 kts 356°
2026-04-25 20:32 46.73589 -122.87340 4526 ft 111 kts 356°
2026-04-25 20:32 46.74334 -122.87430 4506 ft 104 kts 356°
2026-04-25 20:32 46.75034 -122.87514 4497 ft 99 kts 355°
2026-04-25 20:33 46.75701 -122.87594 4496 ft 94 kts 355°
2026-04-25 20:33 46.76347 -122.87673 4501 ft 94 kts 355°
2026-04-25 20:33 46.77002 -122.87752 4503 ft 95 kts 356°
2026-04-25 20:33 46.77225 -122.87778 4503 ft 95 kts 356°
2026-04-25 20:34 46.78406 -122.87921 4514 ft 106 kts 356°
2026-04-25 20:34 46.79135 -122.88008 4513 ft 106 kts 356°
2026-04-25 20:34 46.79865 -122.88096 4510 ft 105 kts 356°
2026-04-25 20:34 46.80591 -122.88184 4508 ft 104 kts 356°
2026-04-25 20:35 46.81322 -122.88272 4507 ft 104 kts 356°
2026-04-25 20:35 46.82041 -122.88358 4506 ft 104 kts 355°
2026-04-25 20:35 46.82759 -122.88445 4506 ft 104 kts 355°
2026-04-25 20:35 46.83477 -122.88532 4506 ft 104 kts 355°
2026-04-25 20:36 46.84195 -122.88619 4506 ft 104 kts 355°
2026-04-25 20:36 46.84911 -122.88706 4507 ft 103 kts 355°
2026-04-25 20:36 46.85625 -122.88792 4508 ft 103 kts 355°
2026-04-25 20:36 46.86339 -122.88878 4509 ft 103 kts 355°
2026-04-25 20:37 46.87051 -122.88964 4510 ft 103 kts 355°
2026-04-25 20:37 46.87763 -122.89050 4510 ft 103 kts 355°
2026-04-25 20:37 46.88475 -122.89136 4505 ft 103 kts 355°
2026-04-25 20:37 46.89212 -122.89225 4436 ft 109 kts 355°
2026-04-25 20:38 46.89981 -122.89318 4367 ft 113 kts 355°
2026-04-25 20:38 46.90768 -122.89413 4295 ft 115 kts 355°
2026-04-25 20:38 46.91555 -122.89508 4220 ft 112 kts 355°
2026-04-25 20:38 46.92331 -122.89602 4140 ft 109 kts 355°
2026-04-25 20:39 46.93078 -122.89692 4058 ft 107 kts 355°
2026-04-25 20:39 46.93821 -122.89782 3980 ft 108 kts 355°
2026-04-25 20:39 46.94565 -122.89872 3903 ft 109 kts 355°
2026-04-25 20:39 46.94819 -122.89903 3877 ft 109 kts 355°
2026-04-25 20:40 46.96088 -122.90056 3751 ft 110 kts 355°
2026-04-25 20:40 46.96846 -122.90145 3675 ft 109 kts 356°
2026-04-25 20:40 46.97595 -122.90199 3597 ft 107 kts 358°
2026-04-25 20:40 46.98335 -122.90239 3518 ft 106 kts 358°
2026-04-25 20:41 46.99069 -122.90275 3440 ft 106 kts 358°
2026-04-25 20:41 46.99813 -122.90310 3376 ft 110 kts 358°
2026-04-25 20:41 47.00592 -122.90346 3305 ft 114 kts 358°
2026-04-25 20:41 47.01384 -122.90382 3234 ft 114 kts 358°
2026-04-25 20:42 47.02181 -122.90418 3162 ft 115 kts 358°
2026-04-25 20:42 47.02975 -122.90454 3088 ft 114 kts 358°
2026-04-25 20:42 47.03728 -122.90172 3015 ft 114 kts 34°
2026-04-25 20:42 47.04300 -122.89371 3002 ft 110 kts 46°
2026-04-25 20:43 47.04811 -122.88560 2996 ft 108 kts 47°
2026-04-25 20:43 47.05316 -122.87760 2993 ft 107 kts 46°
2026-04-25 20:43 47.05818 -122.86968 2992 ft 106 kts 46°
2026-04-25 20:43 47.06320 -122.86178 2991 ft 106 kts 46°
2026-04-25 20:44 47.06821 -122.85390 2991 ft 106 kts 46°
2026-04-25 20:44 47.07321 -122.84605 2991 ft 105 kts 46°
2026-04-25 20:44 47.07820 -122.83820 2991 ft 105 kts 46°
2026-04-25 20:44 47.08320 -122.83035 2990 ft 105 kts 46°
2026-04-25 20:45 47.08819 -122.82250 2990 ft 105 kts 46°
2026-04-25 20:45 47.09314 -122.81473 2984 ft 102 kts 46°
2026-04-25 20:45 47.09784 -122.80732 2983 ft 98 kts 46°
2026-04-25 20:45 47.10241 -122.80013 2981 ft 95 kts 46°
2026-04-25 20:46 47.10689 -122.79308 2984 ft 93 kts 46°
2026-04-25 20:46 47.11130 -122.78613 2999 ft 94 kts 45°
2026-04-25 20:46 47.11598 -122.77878 3011 ft 101 kts 46°
2026-04-25 20:46 47.12080 -122.77120 3014 ft 102 kts 46°
2026-04-25 20:47 47.12568 -122.76351 3013 ft 104 kts 46°
2026-04-25 20:47 47.13061 -122.75574 3011 ft 104 kts 46°
2026-04-25 20:47 47.13555 -122.74794 3008 ft 105 kts 46°
2026-04-25 20:47 47.14052 -122.74010 3008 ft 105 kts 46°
2026-04-25 20:48 47.14550 -122.73224 3006 ft 105 kts 46°
2026-04-25 20:48 47.15053 -122.72428 3005 ft 108 kts 46°
2026-04-25 20:48 47.15568 -122.71614 3004 ft 110 kts 46°
2026-04-25 20:48 47.16080 -122.70778 3004 ft 111 kts 48°
2026-04-25 20:49 47.16576 -122.69909 3004 ft 111 kts 49°
2026-04-25 20:49 47.17068 -122.69034 3004 ft 111 kts 49°
2026-04-25 20:49 47.17555 -122.68164 3004 ft 110 kts 49°
2026-04-25 20:49 47.18040 -122.67294 3004 ft 110 kts 49°
2026-04-25 20:50 47.18523 -122.66427 3005 ft 110 kts 49°
2026-04-25 20:50 47.18848 -122.65843 3005 ft 109 kts 49°
2026-04-25 20:50 47.19323 -122.64988 3005 ft 108 kts 49°
2026-04-25 20:50 47.19793 -122.64143 3006 ft 107 kts 49°
2026-04-25 20:51 47.20262 -122.63300 3001 ft 107 kts 49°
2026-04-25 20:51 47.20742 -122.62435 2924 ft 110 kts 50°
2026-04-25 20:51 47.21207 -122.61596 2835 ft 103 kts 50°
2026-04-25 20:51 47.21650 -122.60797 2742 ft 99 kts 50°
2026-04-25 20:52 47.22056 -122.60061 2651 ft 97 kts 50°
2026-04-25 20:52 47.22341 -122.59545 2592 ft 96 kts 50°
2026-04-25 20:52 47.22892 -122.58545 2479 ft 94 kts 50°
2026-04-25 20:52 47.23305 -122.57794 2399 ft 96 kts 49°
2026-04-25 20:53 47.23730 -122.57021 2327 ft 98 kts 50°
2026-04-25 20:53 47.24157 -122.56242 2255 ft 98 kts 49°
2026-04-25 20:53 47.24596 -122.55444 2201 ft 104 kts 50°
2026-04-25 20:53 47.25058 -122.54602 2133 ft 107 kts 50°
2026-04-25 20:54 47.25524 -122.53753 2063 ft 107 kts 50°
2026-04-25 20:54 47.25981 -122.52917 2000 ft 100 kts 50°
2026-04-25 20:54 47.26412 -122.52131 2010 ft 99 kts 49°
2026-04-25 20:54 47.26850 -122.51332 2011 ft 101 kts 49°
2026-04-25 20:55 47.27301 -122.50511 2011 ft 103 kts 49°
2026-04-25 20:55 47.27748 -122.49695 2008 ft 102 kts 50°
2026-04-25 20:55 47.28188 -122.48890 2004 ft 101 kts 49°
2026-04-25 20:55 47.28626 -122.48090 2002 ft 100 kts 49°
2026-04-25 20:56 47.29059 -122.47298 2001 ft 100 kts 49°
2026-04-25 20:56 47.29493 -122.46506 2000 ft 99 kts 49°
2026-04-25 20:56 47.29926 -122.45713 2000 ft 99 kts 49°
2026-04-25 20:56 47.30358 -122.44923 2000 ft 99 kts 49°
2026-04-25 20:57 47.30793 -122.44126 2000 ft 99 kts 49°
2026-04-25 20:57 47.31224 -122.43339 2000 ft 99 kts 49°
2026-04-25 20:57 47.31655 -122.42549 2000 ft 99 kts 49°
2026-04-25 20:57 47.32085 -122.41761 2000 ft 99 kts 49°
2026-04-25 20:58 47.32515 -122.40974 2000 ft 99 kts 49°
2026-04-25 20:58 47.32944 -122.40187 2000 ft 99 kts 49°
2026-04-25 20:58 47.33374 -122.39398 2000 ft 99 kts 48°
2026-04-25 20:58 47.33807 -122.38606 1999 ft 100 kts 48°
2026-04-25 20:59 47.34242 -122.37807 1999 ft 100 kts 48°
2026-04-25 20:59 47.34681 -122.37003 2000 ft 101 kts 48°
2026-04-25 20:59 47.35119 -122.36199 2001 ft 101 kts 48°
2026-04-25 20:59 47.35559 -122.35391 2001 ft 101 kts 49°
2026-04-25 21:00 47.36004 -122.34573 2002 ft 101 kts 49°
2026-04-25 21:00 47.36295 -122.34037 2001 ft 101 kts 49°
2026-04-25 21:00 47.37318 -122.32173 1998 ft 97 kts 44°
2026-04-25 21:01 47.37915 -122.31813 1914 ft 95 kts
2026-04-25 21:01 47.38551 -122.31796 1752 ft 88 kts 357°
2026-04-25 21:01 47.39150 -122.31828 1585 ft 84 kts 355°
2026-04-25 21:01 47.39738 -122.31861 1425 ft 87 kts 358°
2026-04-25 21:02 47.40343 -122.31830 1286 ft 86 kts
2026-04-25 21:02 47.40921 -122.31822 1184 ft 81 kts 356°
2026-04-25 21:02 47.41504 -122.31838 1085 ft 85 kts 356°
2026-04-25 21:02 47.42092 -122.31842 942 ft 82 kts 358°
2026-04-25 21:03 47.42669 -122.31831 772 ft 81 kts 359°
2026-04-25 21:03 47.43203 -122.31812 660 ft 74 kts 358°
2026-04-25 21:03 47.43708 -122.31813 531 ft 71 kts 358°
2026-04-25 21:03 47.44183 -122.31804 443 ft 64 kts 357°
2026-04-25 21:04 47.44550 -122.31810 437 ft 36 kts
2026-04-25 21:04 47.44645 -122.31799 437 ft 4 kts 42°
2026-04-25 21:04 47.44608 -122.31746 437 ft 17 kts 158°
2026-04-25 21:04 47.44494 -122.31662 437 ft 24 kts 148°
2026-04-25 21:05 47.44333 -122.31531 437 ft 24 kts 147°
2026-04-25 21:05 47.44250 -122.31408 437 ft 12 kts 120°
2026-04-25 21:05 47.44179 -122.31362 437 ft 13 kts 180°
2026-04-25 21:05 47.44083 -122.31363 437 ft 13 kts 180°
2026-04-25 21:06 47.44002 -122.31363 437 ft 12 kts 181°
2026-04-25 21:06 47.43957 -122.31431 437 ft 11 kts 275°
2026-04-25 21:06 47.43990 -122.31531 437 ft 9 kts 256°
2026-04-25 21:06 47.43969 -122.31559 437 ft 5 kts 208°
2026-04-25 21:07 47.43948 -122.31545 437 ft 0 kts 60°